Regional Weather Roundup
Issued by NWS

Home | Current Version | Previous Version | Text Only | Print | Product List | Glossary Off
Versions: 1 2 3 4 5 6 7 8 9 10 11 12 13 14 15 16 17 18 19 20 21 22 23 24 25 26 27 28 29 30 31 32 33 34 35 36 37 38 39 40 41 42 43 44 45 46 47 48 49 50

000
ASUS45 KSLC 291110
RWRUT

UTAH REGIONAL WEATHER ROUNDUP
NATIONAL WEATHER SERVICE SALT LAKE CITY UT
500 AM MDT FRI AUG 29 2014

UTZ001>011-023>025-291200-

NORTHERN UTAH

CITY           SKY/WX    TMP DP  RH WIND       PRES   REMARKS
HILL AFB       CLEAR     60  43  52 E16       30.11S
LOGAN          CLEAR     53  50  89 CALM      30.10S
OGDEN          CLEAR     61  43  51 S9        30.08S
PROVO AIRPORT  CLEAR     57  45  62 SE3       30.13S
SALT LAKE CITY CLEAR     63  45  51 S8        30.07S
VERNAL         CLEAR     54  47  77 CALM      30.16R
WENDOVER       CLEAR     64  37  36 NE8       30.06S
HEBER CITY     CLEAR     45  41  87 CALM      30.21S
WEST JORDAN    CLEAR     63  48  59 S3        30.10F

$$

UTZ012>022-026-027-291200-

SOUTHERN UTAH

CITY           SKY/WX    TMP DP  RH WIND       PRES   REMARKS
BRYCE CANYON   CLEAR     40  36  86 W6        30.32S
CEDAR CITY     CLEAR     50  38  63 CALM      30.17S
MILFORD        CLEAR     54  41  61 SW9       30.13S
MOAB/CYNLANDS  CLEAR     61  48  62 CALM      30.10R
PRICE          CLEAR     56  41  57 NE8       30.19S
ST GEORGE      SUNNY     72  43  35 CALM      30.01R

$$

REGIONAL REPORTS     COLORADO/ARIZONA

CITY           SKY/WX    TMP DP  RH WIND       PRES   REMARKS
CRAIG, CO      MOCLDY    48  45  89 CALM      30.23S
GRAND JUNCTION CLOUDY    59  51  75 SE9       30.15R
RIFLE          PTCLDY    51  47  86 CALM      30.22S
MONTROSE       CLEAR     53  44  71 S10       30.23S
CORTEZ         CLEAR     45  42  89 NE5       30.20F
PAGE, AZ       CLEAR     68  41  37 SW3       30.09R
GRAND CANYON     N/A    N/A N/A N/A MISG        N/A
KINGMAN        CLEAR     64  36  35 E13       30.00F
FLAGSTAFF      CLEAR     44  40  85 CALM      30.28F

$$

REGIONAL REPORTS    NEVADA/IDAHO/WYOMING

CITY           SKY/WX    TMP DP  RH WIND       PRES   REMARKS
LAS VEGAS, NV  CLEAR     81  33  17 S8        29.86R
ELY            PTCLDY    49  39  68 S13       30.21S
ELKO           CLEAR     53  35  50 NE3       30.11S
POCATELLO, ID  PTCLDY    58  47  66 E5        30.08R
BURLEY         PTCLDY    59  45  59 S5        30.03S
EVANSTON, WY   CLEAR     50  40  68 S8        30.26S
ROCK SPRINGS   PTCLDY    53  42  66 W7        30.23R

$$


USA.gov is the U.S. government's official web portal to all federal, state and local government web resources and services.